Location: Pescara
(42.4670°N, 14.2170°E)
Time: 02:05:35
(UTC+02:00)

ISS - Pass Details

Date: 15 May 2021
Orbit: 417 x 422 km, 51.6° (Epoch: 14 June)

Event Time Altitude Azimuth Distance (km) Brightness Sun altitude
Rises 00:25:48 0° 283° (WNW) 2,365 0.3 -28.2°
Reaches altitude 10° 00:28:19 10° 302° (WNW) 1,503 -0.5 -28.3°
Maximum altitude 00:30:50 19° 350° (N) 1,069 -1.0 -28.3°
Drops below altitude 10° 00:33:21 10° 38° (NE) 1,507 -0.4 -28.4°
Sets 00:35:53 0° 57° (ENE) 2,374 0.4 -28.4°
